owner,sensor,date,latitude,longitude,vertical_datum,sea_water_practical_salinity,qcFlag 
DISL,ioos:station:DISL:DISL:1,2014-03-01T00:00:00Z,30.2513,-88.0778,2.001,10.07,1111122 
DISL,ioos:station:DISL:DISL:1,2014-03-01T00:30:00Z,30.2513,-88.0778,2.0,9.24,1111122 
DISL,ioos:station:DISL:DISL:1,2014-03-01T01:00:00Z,30.2513,-88.0778,2.004,8.94,1111122 
DISL,ioos:station:DISL:DISL:1,2014-03-01T01:30:00Z,30.2513,-88.0778,2.026,9.19,1111122 
DISL,ioos:station:DISL:DISL:1,2014-03-01T02:00:00Z,30.2513,-88.0778,2.025,8.46,1111122 
DISL,ioos:station:DISL:DISL:1,2014-03-01T02:30:00Z,30.2513,-88.0778,2.025,13.71,1111122 
DISL,ioos:station:DISL:DISL:1,2014-03-01T03:00:00Z,30.2513,-88.0778,2.035,16.54,1111122 
DISL,ioos:station:DISL:DISL:1,2014-03-01T03:30:00Z,30.2513,-88.0778,2.05,17.35,1111122 
DISL,ioos:station:DISL:DISL:1,2014-03-01T04:00:00Z,30.2513,-88.0778,2.064,17.46,1111122 
DISL,ioos:station:DISL:DISL:1,2014-03-01T04:30:00Z,30.2513,-88.0778,2.076,16.96,1111122 
DISL,ioos:station:DISL:DISL:1,2014-03-01T05:00:00Z,30.2513,-88.0778,2.072,17.07,1111122 
DISL,ioos:station:DISL:DISL:1,2014-03-01T05:30:00Z,30.2513,-88.0778,2.06,16.22,1111122 
DISL,ioos:station:DISL:DISL:1,2014-03-01T06:00:00Z,30.2513,-88.0778,2.073,12.89,1111122 
DISL,ioos:station:DISL:DISL:1,2014-03-01T06:30:00Z,30.2513,-88.0778,2.053,12.86,1111122 
DISL,ioos:station:DISL:DISL:1,2014-03-01T07:00:00Z,30.2513,-88.0778,2.04,13.59,1111122 
DISL,ioos:station:DISL:DISL:1,2014-03-01T07:30:00Z,30.2513,-88.0778,1.998,12.59,1111122 
DISL,ioos:station:DISL:DISL:1,2014-03-01T08:00:00Z,30.2513,-88.0778,1.975,10.47,1111122 
DISL,ioos:station:DISL:DISL:1,2014-03-01T08:30:00Z,30.2513,-88.0778,1.981,9.36,1111122 
DISL,ioos:station:DISL:DISL:1,2014-03-01T09:00:00Z,30.2513,-88.0778,1.937,7.89,1111122 
DISL,ioos:station:DISL:DISL:1,2014-03-01T09:30:00Z,30.2513,-88.0778,1.932,6.99,1111122 
DISL,ioos:station:DISL:DISL:1,2014-03-01T10:00:00Z,30.2513,-88.0778,1.926,6.54,1111122 
DISL,ioos:station:DISL:DISL:1,2014-03-01T10:30:00Z,30.2513,-88.0778,1.93,6.36,1111122 
DISL,ioos:station:DISL:DISL:1,2014-03-01T11:00:00Z,30.2513,-88.0778,1.887,6.21,1111122 
DISL,ioos:station:DISL:DISL:1,2014-03-01T11:30:00Z,30.2513,-88.0778,1.887,6.03,1111122 
DISL,ioos:station:DISL:DISL:1,2014-03-01T12:00:00Z,30.2513,-88.0778,1.855,5.99,1111122 
DISL,ioos:station:DISL:DISL:1,2014-03-01T12:30:00Z,30.2513,-88.0778,1.84,5.95,1111122 
DISL,ioos:station:DISL:DISL:1,2014-03-01T13:00:00Z,30.2513,-88.0778,1.812,6.11,1111122 
DISL,ioos:station:DISL:DISL:1,2014-03-01T13:30:00Z,30.2513,-88.0778,1.829,5.89,1111122 
DISL,ioos:station:DISL:DISL:1,2014-03-01T14:00:00Z,30.2513,-88.0778,1.796,5.87,1111122 
DISL,ioos:station:DISL:DISL:1,2014-03-01T14:30:00Z,30.2513,-88.0778,1.798,5.87,1111122 
DISL,ioos:station:DISL:DISL:1,2014-03-01T15:00:00Z,30.2513,-88.0778,1.789,6.07,1111122 
DISL,ioos:station:DISL:DISL:1,2014-03-01T15:30:00Z,30.2513,-88.0778,1.773,6.14,1111122 
DISL,ioos:station:DISL:DISL:1,2014-03-01T16:00:00Z,30.2513,-88.0778,1.787,6.03,1111122 
DISL,ioos:station:DISL:DISL:1,2014-03-01T16:30:00Z,30.2513,-88.0778,1.788,6.12,1111122 
DISL,ioos:station:DISL:DISL:1,2014-03-01T17:00:00Z,30.2513,-88.0778,1.8,6.1,1111122 
DISL,ioos:station:DISL:DISL:1,2014-03-01T17:30:00Z,30.2513,-88.0778,1.805,6.04,1111122 
DISL,ioos:station:DISL:DISL:1,2014-03-01T18:00:00Z,30.2513,-88.0778,1.805,6.15,1111122 
DISL,ioos:station:DISL:DISL:1,2014-03-01T18:30:00Z,30.2513,-88.0778,1.809,6.29,1111122 
DISL,ioos:station:DISL:DISL:1,2014-03-01T19:00:00Z,30.2513,-88.0778,1.816,6.64,1111122 
DISL,ioos:station:DISL:DISL:1,2014-03-01T19:30:00Z,30.2513,-88.0778,1.816,6.64,1111122 
DISL,ioos:station:DISL:DISL:1,2014-03-01T20:00:00Z,30.2513,-88.0778,1.816,6.39,1111122 
DISL,ioos:station:DISL:DISL:1,2014-03-01T20:30:00Z,30.2513,-88.0778,1.811,6.33,1111122 
DISL,ioos:station:DISL:DISL:1,2014-03-01T21:00:00Z,30.2513,-88.0778,1.812,6.26,1111122 
DISL,ioos:station:DISL:DISL:1,2014-03-01T21:30:00Z,30.2513,-88.0778,1.817,6.15,1111122 
DISL,ioos:station:DISL:DISL:1,2014-03-01T22:00:00Z,30.2513,-88.0778,1.816,6.12,1111122 
DISL,ioos:station:DISL:DISL:1,2014-03-01T22:30:00Z,30.2513,-88.0778,1.823,5.94,1111122 
DISL,ioos:station:DISL:DISL:1,2014-03-01T23:00:00Z,30.2513,-88.0778,1.833,5.85,1111122 
DISL,ioos:station:DISL:DISL:1,2014-03-01T23:30:00Z,30.2513,-88.0778,1.854,5.84,1111122 
DISL,ioos:station:DISL:DISL:1,2014-03-02T00:00:00Z,30.2513,-88.0778,1.858,5.87,1111122 
DISL,ioos:station:DISL:DISL:1,2014-03-02T00:30:00Z,30.2513,-88.0778,1.871,5.98,1111122 
DISL,ioos:station:DISL:DISL:1,2014-03-02T01:00:00Z,30.2513,-88.0778,1.894,5.95,1111122 
DISL,ioos:station:DISL:DISL:1,2014-03-02T01:30:00Z,30.2513,-88.0778,1.895,6.2,1111122 
DISL,ioos:station:DISL:DISL:1,2014-03-02T02:00:00Z,30.2513,-88.0778,1.908,6.41,1111122 
DISL,ioos:station:DISL:DISL:1,2014-03-02T02:30:00Z,30.2513,-88.0778,1.913,6.32,1111122 
DISL,ioos:station:DISL:DISL:1,2014-03-02T03:00:00Z,30.2513,-88.0778,1.933,6.35,1111122 
DISL,ioos:station:DISL:DISL:1,2014-03-02T03:30:00Z,30.2513,-88.0778,1.928,6.23,1111122 
DISL,ioos:station:DISL:DISL:1,2014-03-02T04:00:00Z,30.2513,-88.0778,1.946,6.23,1111122 
DISL,ioos:station:DISL:DISL:1,2014-03-02T04:30:00Z,30.2513,-88.0778,1.972,6.23,1111122 
DISL,ioos:station:DISL:DISL:1,2014-03-02T05:00:00Z,30.2513,-88.0778,1.974,6.09,1111122 
DISL,ioos:station:DISL:DISL:1,2014-03-02T05:30:00Z,30.2513,-88.0778,1.981,6.17,1111122 
DISL,ioos:station:DISL:DISL:1,2014-03-02T06:00:00Z,30.2513,-88.0778,1.997,6.17,1111122 
DISL,ioos:station:DISL:DISL:1,2014-03-02T06:30:00Z,30.2513,-88.0778,2.008,6.24,1111122 
DISL,ioos:station:DISL:DISL:1,2014-03-02T07:00:00Z,30.2513,-88.0778,2.003,6.26,1111122 
DISL,ioos:station:DISL:DISL:1,2014-03-02T07:30:00Z,30.2513,-88.0778,1.991,6.22,1111122 
DISL,ioos:station:DISL:DISL:1,2014-03-02T08:00:00Z,30.2513,-88.0778,1.989,6.19,1111122 
DISL,ioos:station:DISL:DISL:1,2014-03-02T08:30:00Z,30.2513,-88.0778,1.97,6.18,1111122 
DISL,ioos:station:DISL:DISL:1,2014-03-02T09:00:00Z,30.2513,-88.0778,1.943,6.19,1111122 
DISL,ioos:station:DISL:DISL:1,2014-03-02T09:30:00Z,30.2513,-88.0778,1.941,6.09,1111122 
DISL,ioos:station:DISL:DISL:1,2014-03-02T10:00:00Z,30.2513,-88.0778,1.928,6.08,1111122 
DISL,ioos:station:DISL:DISL:1,2014-03-02T10:30:00Z,30.2513,-88.0778,1.916,5.99,1111122 
DISL,ioos:station:DISL:DISL:1,2014-03-02T11:00:00Z,30.2513,-88.0778,1.904,6.16,1111122 
DISL,ioos:station:DISL:DISL:1,2014-03-02T11:30:00Z,30.2513,-88.0778,1.897,6.12,1111122 
DISL,ioos:station:DISL:DISL:1,2014-03-02T12:00:00Z,30.2513,-88.0778,1.886,5.79,1111122 
DISL,ioos:station:DISL:DISL:1,2014-03-02T12:30:00Z,30.2513,-88.0778,1.876,5.4,1111122 
DISL,ioos:station:DISL:DISL:1,2014-03-02T13:00:00Z,30.2513,-88.0778,1.872,5.15,1111122 
DISL,ioos:station:DISL:DISL:1,2014-03-02T13:30:00Z,30.2513,-88.0778,1.879,5.09,1111122 
DISL,ioos:station:DISL:DISL:1,2014-03-02T14:00:00Z,30.2513,-88.0778,1.868,4.75,1111122 
DISL,ioos:station:DISL:DISL:1,2014-03-02T14:30:00Z,30.2513,-88.0778,1.868,4.83,1111122 
DISL,ioos:station:DISL:DISL:1,2014-03-02T15:00:00Z,30.2513,-88.0778,1.874,4.67,1111122 
DISL,ioos:station:DISL:DISL:1,2014-03-02T15:30:00Z,30.2513,-88.0778,1.863,4.72,1111122 
DISL,ioos:station:DISL:DISL:1,2014-03-02T16:00:00Z,30.2513,-88.0778,1.877,4.57,1111122 
DISL,ioos:station:DISL:DISL:1,2014-03-02T16:30:00Z,30.2513,-88.0778,1.875,4.71,1111122 
DISL,ioos:station:DISL:DISL:1,2014-03-02T17:00:00Z,30.2513,-88.0778,1.887,4.65,1111122 
DISL,ioos:station:DISL:DISL:1,2014-03-02T17:30:00Z,30.2513,-88.0778,1.888,4.73,1111122 
DISL,ioos:station:DISL:DISL:1,2014-03-02T18:00:00Z,30.2513,-88.0778,1.899,4.84,1111122 
DISL,ioos:station:DISL:DISL:1,2014-03-02T18:30:00Z,30.2513,-88.0778,1.89,4.96,1111122 
DISL,ioos:station:DISL:DISL:1,2014-03-02T19:00:00Z,30.2513,-88.0778,1.904,4.92,1111122 
DISL,ioos:station:DISL:DISL:1,2014-03-02T19:30:00Z,30.2513,-88.0778,1.887,4.68,1111122 
DISL,ioos:station:DISL:DISL:1,2014-03-02T20:00:00Z,30.2513,-88.0778,1.9,4.69,1111122 
DISL,ioos:station:DISL:DISL:1,2014-03-02T20:30:00Z,30.2513,-88.0778,1.808,4.54,1111122 
DISL,ioos:station:DISL:DISL:1,2014-03-02T21:00:00Z,30.2513,-88.0778,1.886,4.46,1111122 
DISL,ioos:station:DISL:DISL:1,2014-03-02T21:30:00Z,30.2513,-88.0778,1.856,4.38,1111122 
DISL,ioos:station:DISL:DISL:1,2014-03-02T22:00:00Z,30.2513,-88.0778,1.855,4.49,1111122 
DISL,ioos:station:DISL:DISL:1,2014-03-02T22:30:00Z,30.2513,-88.0778,1.847,4.54,1111122 
DISL,ioos:station:DISL:DISL:1,2014-03-02T23:00:00Z,30.2513,-88.0778,1.851,5.03,1111122 
DISL,ioos:station:DISL:DISL:1,2014-03-02T23:30:00Z,30.2513,-88.0778,1.839,5.24,1111122 
DISL,ioos:station:DISL:DISL:1,2014-03-03T00:00:00Z,30.2513,-88.0778,1.828,5.39,1111122 
DISL,ioos:station:DISL:DISL:1,2014-03-03T00:30:00Z,30.2513,-88.0778,1.84,5.24,1111122 
DISL,ioos:station:DISL:DISL:1,2014-03-03T01:00:00Z,30.2513,-88.0778,1.836,5.07,1111122 
DISL,ioos:station:DISL:DISL:1,2014-03-03T01:30:00Z,30.2513,-88.0778,1.846,5.0,1111122 
DISL,ioos:station:DISL:DISL:1,2014-03-03T02:00:00Z,30.2513,-88.0778,1.856,4.97,1111122 
DISL,ioos:station:DISL:DISL:1,2014-03-03T02:30:00Z,30.2513,-88.0778,1.87,4.81,1111122 
DISL,ioos:station:DISL:DISL:1,2014-03-03T03:00:00Z,30.2513,-88.0778,1.888,4.87,1111122 
DISL,ioos:station:DISL:DISL:1,2014-03-03T03:30:00Z,30.2513,-88.0778,1.897,4.87,1111122 
DISL,ioos:station:DISL:DISL:1,2014-03-03T04:00:00Z,30.2513,-88.0778,1.902,4.87,1111122 
DISL,ioos:station:DISL:DISL:1,2014-03-03T04:30:00Z,30.2513,-88.0778,1.919,4.85,1111122 
DISL,ioos:station:DISL:DISL:1,2014-03-03T05:00:00Z,30.2513,-88.0778,1.934,4.94,1111122 
DISL,ioos:station:DISL:DISL:1,2014-03-03T05:30:00Z,30.2513,-88.0778,1.95,5.46,1111122 
DISL,ioos:station:DISL:DISL:1,2014-03-03T06:00:00Z,30.2513,-88.0778,1.97,6.13,1111122 
DISL,ioos:station:DISL:DISL:1,2014-03-03T06:30:00Z,30.2513,-88.0778,1.99,6.63,1111122 
DISL,ioos:station:DISL:DISL:1,2014-03-03T07:00:00Z,30.2513,-88.0778,2.006,6.91,1111122 
DISL,ioos:station:DISL:DISL:1,2014-03-03T07:30:00Z,30.2513,-88.0778,2.019,7.24,1111122 
DISL,ioos:station:DISL:DISL:1,2014-03-03T08:00:00Z,30.2513,-88.0778,2.023,7.48,1111122 
DISL,ioos:station:DISL:DISL:1,2014-03-03T08:30:00Z,30.2513,-88.0778,2.021,7.58,1111122 
DISL,ioos:station:DISL:DISL:1,2014-03-03T09:00:00Z,30.2513,-88.0778,1.98,7.78,1111122 
DISL,ioos:station:DISL:DISL:1,2014-03-03T09:30:00Z,30.2513,-88.0778,1.994,8.14,1111122 
DISL,ioos:station:DISL:DISL:1,2014-03-03T10:00:00Z,30.2513,-88.0778,1.945,7.83,1111122 
DISL,ioos:station:DISL:DISL:1,2014-03-03T10:30:00Z,30.2513,-88.0778,1.965,7.65,1111122 
DISL,ioos:station:DISL:DISL:1,2014-03-03T11:00:00Z,30.2513,-88.0778,1.953,5.61,1111122 
DISL,ioos:station:DISL:DISL:1,2014-03-03T11:30:00Z,30.2513,-88.0778,1.963,5.34,1111122 
DISL,ioos:station:DISL:DISL:1,2014-03-03T12:00:00Z,30.2513,-88.0778,1.97,5.21,1111122 
DISL,ioos:station:DISL:DISL:1,2014-03-03T12:30:00Z,30.2513,-88.0778,1.967,4.99,1111122 
DISL,ioos:station:DISL:DISL:1,2014-03-03T13:00:00Z,30.2513,-88.0778,1.962,5.38,1111122 
DISL,ioos:station:DISL:DISL:1,2014-03-03T13:30:00Z,30.2513,-88.0778,1.991,5.47,1111122 
DISL,ioos:station:DISL:DISL:1,2014-03-03T14:00:00Z,30.2513,-88.0778,2.003,5.9,1111122 
DISL,ioos:station:DISL:DISL:1,2014-03-03T14:30:00Z,30.2513,-88.0778,1.998,5.71,1111122 
DISL,ioos:station:DISL:DISL:1,2014-03-03T15:00:00Z,30.2513,-88.0778,2.007,6.38,1111122 
DISL,ioos:station:DISL:DISL:1,2014-03-03T15:30:00Z,30.2513,-88.0778,1.997,7.5,1111122 
DISL,ioos:station:DISL:DISL:1,2014-03-03T16:00:00Z,30.2513,-88.0778,2.022,8.86,1111122 
DISL,ioos:station:DISL:DISL:1,2014-03-03T16:30:00Z,30.2513,-88.0778,2.049,9.86,1111122 
DISL,ioos:station:DISL:DISL:1,2014-03-03T17:00:00Z,30.2513,-88.0778,1.93,10.39,1111122 
DISL,ioos:station:DISL:DISL:1,2014-03-03T17:30:00Z,30.2513,-88.0778,1.993,9.53,1111122 
DISL,ioos:station:DISL:DISL:1,2014-03-03T18:00:00Z,30.2513,-88.0778,1.953,6.2,1111122 
DISL,ioos:station:DISL:DISL:1,2014-03-03T18:30:00Z,30.2513,-88.0778,1.936,5.19,1111122 
DISL,ioos:station:DISL:DISL:1,2014-03-03T19:00:00Z,30.2513,-88.0778,1.89,5.28,1111122 
DISL,ioos:station:DISL:DISL:1,2014-03-03T19:30:00Z,30.2513,-88.0778,1.894,4.9,1111122 
DISL,ioos:station:DISL:DISL:1,2014-03-03T20:00:00Z,30.2513,-88.0778,1.9,4.94,1111122 
DISL,ioos:station:DISL:DISL:1,2014-03-03T20:30:00Z,30.2513,-88.0778,1.862,4.93,1111122 
DISL,ioos:station:DISL:DISL:1,2014-03-03T21:00:00Z,30.2513,-88.0778,1.87,4.9,1111122 
DISL,ioos:station:DISL:DISL:1,2014-03-03T21:30:00Z,30.2513,-88.0778,1.867,4.89,1111122 
DISL,ioos:station:DISL:DISL:1,2014-03-03T22:00:00Z,30.2513,-88.0778,1.957,4.92,1111122 
DISL,ioos:station:DISL:DISL:1,2014-03-03T22:30:00Z,30.2513,-88.0778,1.759,5.12,1111122 
DISL,ioos:station:DISL:DISL:1,2014-03-03T23:00:00Z,30.2513,-88.0778,1.802,5.08,1111122 
DISL,ioos:station:DISL:DISL:1,2014-03-03T23:30:00Z,30.2513,-88.0778,1.865,4.99,1111122 
DISL,ioos:station:DISL:DISL:1,2014-03-04T00:00:00Z,30.2513,-88.0778,1.796,5.0,1111122 
DISL,ioos:station:DISL:DISL:1,2014-03-04T00:30:00Z,30.2513,-88.0778,1.836,5.3,1111122 
DISL,ioos:station:DISL:DISL:1,2014-03-04T01:00:00Z,30.2513,-88.0778,1.829,5.12,1111122 
DISL,ioos:station:DISL:DISL:1,2014-03-04T01:30:00Z,30.2513,-88.0778,1.753,5.07,1111122 
DISL,ioos:station:DISL:DISL:1,2014-03-04T02:00:00Z,30.2513,-88.0778,1.73,5.17,1111122 
DISL,ioos:station:DISL:DISL:1,2014-03-04T02:30:00Z,30.2513,-88.0778,1.738,5.23,1111122 
DISL,ioos:station:DISL:DISL:1,2014-03-04T03:00:00Z,30.2513,-88.0778,1.732,5.25,1111122 
DISL,ioos:station:DISL:DISL:1,2014-03-04T03:30:00Z,30.2513,-88.0778,1.738,5.22,1111122 
DISL,ioos:station:DISL:DISL:1,2014-03-04T04:00:00Z,30.2513,-88.0778,1.675,5.17,1111122 
DISL,ioos:station:DISL:DISL:1,2014-03-04T04:30:00Z,30.2513,-88.0778,1.762,5.18,1111122 
DISL,ioos:station:DISL:DISL:1,2014-03-04T05:00:00Z,30.2513,-88.0778,1.722,5.35,1111122 
DISL,ioos:station:DISL:DISL:1,2014-03-04T05:30:00Z,30.2513,-88.0778,1.74,5.34,1111122 
DISL,ioos:station:DISL:DISL:1,2014-03-04T06:00:00Z,30.2513,-88.0778,1.616,5.34,1111122 
DISL,ioos:station:DISL:DISL:1,2014-03-04T06:30:00Z,30.2513,-88.0778,1.755,5.39,1111122 
DISL,ioos:station:DISL:DISL:1,2014-03-04T07:00:00Z,30.2513,-88.0778,1.749,5.35,1111122 
DISL,ioos:station:DISL:DISL:1,2014-03-04T07:30:00Z,30.2513,-88.0778,1.766,5.28,1111122 
DISL,ioos:station:DISL:DISL:1,2014-03-04T08:00:00Z,30.2513,-88.0778,1.765,5.29,1111122 
DISL,ioos:station:DISL:DISL:1,2014-03-04T08:30:00Z,30.2513,-88.0778,1.768,5.29,1111122 
DISL,ioos:station:DISL:DISL:1,2014-03-04T09:00:00Z,30.2513,-88.0778,1.802,5.3,1111122 
DISL,ioos:station:DISL:DISL:1,2014-03-04T09:30:00Z,30.2513,-88.0778,1.808,5.69,1111122 
DISL,ioos:station:DISL:DISL:1,2014-03-04T10:00:00Z,30.2513,-88.0778,1.827,5.94,1111122 
DISL,ioos:station:DISL:DISL:1,2014-03-04T10:30:00Z,30.2513,-88.0778,1.837,6.96,1111122 
DISL,ioos:station:DISL:DISL:1,2014-03-04T11:00:00Z,30.2513,-88.0778,1.831,7.74,1111122 
DISL,ioos:station:DISL:DISL:1,2014-03-04T11:30:00Z,30.2513,-88.0778,1.837,8.2,1111122 
DISL,ioos:station:DISL:DISL:1,2014-03-04T12:00:00Z,30.2513,-88.0778,1.838,8.11,1111122 
DISL,ioos:station:DISL:DISL:1,2014-03-04T12:30:00Z,30.2513,-88.0778,1.858,7.16,1111122 
DISL,ioos:station:DISL:DISL:1,2014-03-04T13:00:00Z,30.2513,-88.0778,1.89,6.06,1111122 
DISL,ioos:station:DISL:DISL:1,2014-03-04T13:30:00Z,30.2513,-88.0778,1.869,5.32,1111122 
DISL,ioos:station:DISL:DISL:1,2014-03-04T14:00:00Z,30.2513,-88.0778,1.886,5.45,1111122 
DISL,ioos:station:DISL:DISL:1,2014-03-04T14:30:00Z,30.2513,-88.0778,1.932,7.56,1111122 
DISL,ioos:station:DISL:DISL:1,2014-03-04T15:00:00Z,30.2513,-88.0778,1.937,13.93,1111122 
DISL,ioos:station:DISL:DISL:1,2014-03-04T15:30:00Z,30.2513,-88.0778,1.907,15.65,1111122 
DISL,ioos:station:DISL:DISL:1,2014-03-04T16:00:00Z,30.2513,-88.0778,1.929,15.94,1111122 
DISL,ioos:station:DISL:DISL:1,2014-03-04T16:30:00Z,30.2513,-88.0778,1.96,13.94,1111122 
DISL,ioos:station:DISL:DISL:1,2014-03-04T17:00:00Z,30.2513,-88.0778,1.963,9.73,1111122 
DISL,ioos:station:DISL:DISL:1,2014-03-04T17:30:00Z,30.2513,-88.0778,1.964,10.38,1111122 
DISL,ioos:station:DISL:DISL:1,2014-03-04T18:00:00Z,30.2513,-88.0778,1.956,8.28,1111122 
DISL,ioos:station:DISL:DISL:1,2014-03-04T18:30:00Z,30.2513,-88.0778,1.988,8.17,1111122 
DISL,ioos:station:DISL:DISL:1,2014-03-04T19:00:00Z,30.2513,-88.0778,1.98,7.35,1111122 
DISL,ioos:station:DISL:DISL:1,2014-03-04T19:30:00Z,30.2513,-88.0778,1.971,6.17,1111122 
DISL,ioos:station:DISL:DISL:1,2014-03-04T20:00:00Z,30.2513,-88.0778,1.94,7.76,1111122 
DISL,ioos:station:DISL:DISL:1,2014-03-04T20:30:00Z,30.2513,-88.0778,1.98,6.02,1111122 
DISL,ioos:station:DISL:DISL:1,2014-03-04T21:00:00Z,30.2513,-88.0778,1.957,5.39,1111122 
DISL,ioos:station:DISL:DISL:1,2014-03-04T21:30:00Z,30.2513,-88.0778,1.918,5.48,1111122 
DISL,ioos:station:DISL:DISL:1,2014-03-04T22:00:00Z,30.2513,-88.0778,1.872,5.58,1111122 
DISL,ioos:station:DISL:DISL:1,2014-03-04T22:30:00Z,30.2513,-88.0778,1.83,6.02,1111122 
DISL,ioos:station:DISL:DISL:1,2014-03-04T23:00:00Z,30.2513,-88.0778,1.888,5.6,1111122 
DISL,ioos:station:DISL:DISL:1,2014-03-04T23:30:00Z,30.2513,-88.0778,1.879,5.35,1111122 
DISL,ioos:station:DISL:DISL:1,2014-03-05T00:00:00Z,30.2513,-88.0778,1.817,5.31,1111122 
DISL,ioos:station:DISL:DISL:1,2014-03-05T00:30:00Z,30.2513,-88.0778,1.816,5.38,1111122 
DISL,ioos:station:DISL:DISL:1,2014-03-05T01:00:00Z,30.2513,-88.0778,1.801,5.33,1111122 
DISL,ioos:station:DISL:DISL:1,2014-03-05T01:30:00Z,30.2513,-88.0778,1.787,5.31,1111122 
DISL,ioos:station:DISL:DISL:1,2014-03-05T02:00:00Z,30.2513,-88.0778,1.775,5.38,1111122 
DISL,ioos:station:DISL:DISL:1,2014-03-05T02:30:00Z,30.2513,-88.0778,1.768,5.39,1111122 
DISL,ioos:station:DISL:DISL:1,2014-03-05T03:00:00Z,30.2513,-88.0778,1.792,5.35,1111122 
DISL,ioos:station:DISL:DISL:1,2014-03-05T03:30:00Z,30.2513,-88.0778,1.763,5.33,1111122 
DISL,ioos:station:DISL:DISL:1,2014-03-05T04:00:00Z,30.2513,-88.0778,1.784,5.43,1111122 
DISL,ioos:station:DISL:DISL:1,2014-03-05T04:30:00Z,30.2513,-88.0778,1.779,5.56,1111122 
DISL,ioos:station:DISL:DISL:1,2014-03-05T05:00:00Z,30.2513,-88.0778,1.765,5.53,1111122 
DISL,ioos:station:DISL:DISL:1,2014-03-05T05:30:00Z,30.2513,-88.0778,1.75,5.47,1111122 
DISL,ioos:station:DISL:DISL:1,2014-03-05T06:00:00Z,30.2513,-88.0778,1.723,5.43,1111122 
DISL,ioos:station:DISL:DISL:1,2014-03-05T06:30:00Z,30.2513,-88.0778,1.76,5.43,1111122 
DISL,ioos:station:DISL:DISL:1,2014-03-05T07:00:00Z,30.2513,-88.0778,1.736,5.39,1111122 
DISL,ioos:station:DISL:DISL:1,2014-03-05T07:30:00Z,30.2513,-88.0778,1.778,5.34,1111122 
DISL,ioos:station:DISL:DISL:1,2014-03-05T08:00:00Z,30.2513,-88.0778,1.768,5.3,1111122 
DISL,ioos:station:DISL:DISL:1,2014-03-05T08:30:00Z,30.2513,-88.0778,1.793,5.24,1111122 
DISL,ioos:station:DISL:DISL:1,2014-03-05T09:00:00Z,30.2513,-88.0778,1.82,6.75,1111122 
DISL,ioos:station:DISL:DISL:1,2014-03-05T09:30:00Z,30.2513,-88.0778,1.87,7.1,1111122 
DISL,ioos:station:DISL:DISL:1,2014-03-05T10:00:00Z,30.2513,-88.0778,1.861,6.74,1111122 
DISL,ioos:station:DISL:DISL:1,2014-03-05T10:30:00Z,30.2513,-88.0778,1.859,6.74,1111122 
DISL,ioos:station:DISL:DISL:1,2014-03-05T11:00:00Z,30.2513,-88.0778,1.898,6.37,1111122 
DISL,ioos:station:DISL:DISL:1,2014-03-05T11:30:00Z,30.2513,-88.0778,1.908,6.3,1111122 
DISL,ioos:station:DISL:DISL:1,2014-03-05T12:00:00Z,30.2513,-88.0778,1.915,6.31,1111122 
DISL,ioos:station:DISL:DISL:1,2014-03-05T12:30:00Z,30.2513,-88.0778,1.906,5.67,1111122 
DISL,ioos:station:DISL:DISL:1,2014-03-05T13:00:00Z,30.2513,-88.0778,1.945,6.0,1111122 
DISL,ioos:station:DISL:DISL:1,2014-03-05T13:30:00Z,30.2513,-88.0778,1.896,13.4,1111122 
DISL,ioos:station:DISL:DISL:1,2014-03-05T14:00:00Z,30.2513,-88.0778,1.971,7.27,1111122 
DISL,ioos:station:DISL:DISL:1,2014-03-05T14:30:00Z,30.2513,-88.0778,1.941,10.66,1111122 
DISL,ioos:station:DISL:DISL:1,2014-03-05T15:00:00Z,30.2513,-88.0778,1.992,13.76,1111122 
DISL,ioos:station:DISL:DISL:1,2014-03-05T15:30:00Z,30.2513,-88.0778,1.986,13.72,1111122 
DISL,ioos:station:DISL:DISL:1,2014-03-05T16:00:00Z,30.2513,-88.0778,1.984,29.67,1111122 
DISL,ioos:station:DISL:DISL:1,2014-03-05T16:30:00Z,30.2513,-88.0778,1.993,29.77,1111122 
DISL,ioos:station:DISL:DISL:1,2014-03-05T17:00:00Z,30.2513,-88.0778,2.029,29.67,1111122 
DISL,ioos:station:DISL:DISL:1,2014-03-05T17:30:00Z,30.2513,-88.0778,2.036,29.82,1111122 
DISL,ioos:station:DISL:DISL:1,2014-03-05T18:00:00Z,30.2513,-88.0778,2.058,27.77,1111122 
DISL,ioos:station:DISL:DISL:1,2014-03-05T18:30:00Z,30.2513,-88.0778,2.049,22.81,1111122 
DISL,ioos:station:DISL:DISL:1,2014-03-05T19:00:00Z,30.2513,-88.0778,2.092,20.3,1111122 
DISL,ioos:station:DISL:DISL:1,2014-03-05T19:30:00Z,30.2513,-88.0778,2.08,17.45,1111122 
DISL,ioos:station:DISL:DISL:1,2014-03-05T20:00:00Z,30.2513,-88.0778,2.123,13.0,1111122 
DISL,ioos:station:DISL:DISL:1,2014-03-05T20:30:00Z,30.2513,-88.0778,2.088,13.02,1111122 
DISL,ioos:station:DISL:DISL:1,2014-03-05T21:00:00Z,30.2513,-88.0778,2.107,12.08,1111122 
DISL,ioos:station:DISL:DISL:1,2014-03-05T21:30:00Z,30.2513,-88.0778,2.081,11.15,1111122 
DISL,ioos:station:DISL:DISL:1,2014-03-05T22:00:00Z,30.2513,-88.0778,2.057,10.68,1111122 
DISL,ioos:station:DISL:DISL:1,2014-03-05T22:30:00Z,30.2513,-88.0778,2.053,11.49,1111122 
DISL,ioos:station:DISL:DISL:1,2014-03-05T23:00:00Z,30.2513,-88.0778,2.009,11.1,1111122 
DISL,ioos:station:DISL:DISL:1,2014-03-05T23:30:00Z,30.2513,-88.0778,1.974,11.03,1111122 
DISL,ioos:station:DISL:DISL:1,2014-03-06T00:00:00Z,30.2513,-88.0778,1.973,11.6,1111122 
DISL,ioos:station:DISL:DISL:1,2014-03-06T00:30:00Z,30.2513,-88.0778,1.987,11.33,1111122 
DISL,ioos:station:DISL:DISL:1,2014-03-06T01:00:00Z,30.2513,-88.0778,1.939,8.74,1111122 
DISL,ioos:station:DISL:DISL:1,2014-03-06T01:30:00Z,30.2513,-88.0778,1.906,8.28,1111122 
DISL,ioos:station:DISL:DISL:1,2014-03-06T02:00:00Z,30.2513,-88.0778,1.887,7.88,1111122 
DISL,ioos:station:DISL:DISL:1,2014-03-06T02:30:00Z,30.2513,-88.0778,1.869,7.39,1111122 
DISL,ioos:station:DISL:DISL:1,2014-03-06T03:00:00Z,30.2513,-88.0778,1.856,7.28,1111122 
DISL,ioos:station:DISL:DISL:1,2014-03-06T03:30:00Z,30.2513,-88.0778,1.846,7.42,1111122 
DISL,ioos:station:DISL:DISL:1,2014-03-06T04:00:00Z,30.2513,-88.0778,1.831,7.44,1111122 
DISL,ioos:station:DISL:DISL:1,2014-03-06T04:30:00Z,30.2513,-88.0778,1.819,7.62,1111122 
DISL,ioos:station:DISL:DISL:1,2014-03-06T05:00:00Z,30.2513,-88.0778,1.796,7.49,1111122 
DISL,ioos:station:DISL:DISL:1,2014-03-06T05:30:00Z,30.2513,-88.0778,1.804,7.42,1111122 
DISL,ioos:station:DISL:DISL:1,2014-03-06T06:00:00Z,30.2513,-88.0778,1.825,7.53,1111122 
DISL,ioos:station:DISL:DISL:1,2014-03-06T06:30:00Z,30.2513,-88.0778,1.807,7.77,1111122 
DISL,ioos:station:DISL:DISL:1,2014-03-06T07:00:00Z,30.2513,-88.0778,1.789,7.36,1111122 
DISL,ioos:station:DISL:DISL:1,2014-03-06T07:30:00Z,30.2513,-88.0778,1.817,7.3,1111122 
DISL,ioos:station:DISL:DISL:1,2014-03-06T08:00:00Z,30.2513,-88.0778,1.843,7.24,1111122 
DISL,ioos:station:DISL:DISL:1,2014-03-06T08:30:00Z,30.2513,-88.0778,1.84,7.09,1111122 
DISL,ioos:station:DISL:DISL:1,2014-03-06T09:00:00Z,30.2513,-88.0778,1.848,7.12,1111122 
DISL,ioos:station:DISL:DISL:1,2014-03-06T09:30:00Z,30.2513,-88.0778,1.829,7.3,1111122 
DISL,ioos:station:DISL:DISL:1,2014-03-06T10:00:00Z,30.2513,-88.0778,1.891,9.07,1111122 
DISL,ioos:station:DISL:DISL:1,2014-03-06T10:30:00Z,30.2513,-88.0778,1.869,12.95,1111122 
DISL,ioos:station:DISL:DISL:1,2014-03-06T11:00:00Z,30.2513,-88.0778,1.862,10.63,1111122 
DISL,ioos:station:DISL:DISL:1,2014-03-06T11:30:00Z,30.2513,-88.0778,2.025,8.93,1111122 
DISL,ioos:station:DISL:DISL:1,2014-03-06T12:00:00Z,30.2513,-88.0778,1.967,12.43,1111122 
DISL,ioos:station:DISL:DISL:1,2014-03-06T12:30:00Z,30.2513,-88.0778,2.005,13.37,1111122 
DISL,ioos:station:DISL:DISL:1,2014-03-06T13:00:00Z,30.2513,-88.0778,1.965,17.39,1111122 
DISL,ioos:station:DISL:DISL:1,2014-03-06T13:30:00Z,30.2513,-88.0778,1.986,18.88,1111122 
DISL,ioos:station:DISL:DISL:1,2014-03-06T14:00:00Z,30.2513,-88.0778,1.991,22.06,1111122 
DISL,ioos:station:DISL:DISL:1,2014-03-06T14:30:00Z,30.2513,-88.0778,2.055,25.42,1111122 
DISL,ioos:station:DISL:DISL:1,2014-03-06T15:00:00Z,30.2513,-88.0778,2.07,27.88,1111122 